Mount Shasta, CA

9:19 AM PDT on June 23, 2017 (GMT -0700)
Mount Shasta

Weather History for KMHS - August, 2014

Change the Weather History Date:

Tuesday, August 19, 2014

  Actual Average Record
Temperature  
Mean Temperature 72 °F 66 °F  
Max Temperature 91 °F 85 °F 100 °F (2016)
Min Temperature 53 °F 48 °F 35 °F (1924)
Degree Days  
Heating Degree Days 0 1  
Month to date heating degree days 1 19  
Since 1 June heating degree days 58 194  
Since 1 July heating degree days 2 52  
Cooling Degree Days 7 3  
Month to date cooling degree days 109 67  
Year to date cooling degree days 466 235  
Since 1 June cooling degree days 457 227  
Growing Degree Days 22 (Base 50)    
Moisture  
Dew Point 47 °F    
Average Humidity 42    
Maximum Humidity 66    
Minimum Humidity 23    
Precipitation  
Precipitation 0.00 in 0.01 in 0.32 in (1968)
Month to date precipitation 0.21 0.19  
Year to date precipitation 12.28 27.18  
Sea Level Pressure  
Sea Level Pressure 29.84 in    
Wind  
Wind Speed 3 mph (NE)    
Max Wind Speed 10 mph    
Max Gust Speed 18 mph    
Visibility 9 miles    
Events      
T = Trace of Precipitation, MM = Missing Value Source: NWS Daily Summary

Daily Weather History Graph

Daily Weather History Graph

Search for Another Location

Airport or City:

Trip Planner

Search our weather history database for the weather conditions in past years. The results will help you decide how hot, cold, wet, or windy it might be!

Date:

Astronomy

Aug. 19, 2014 Rise Set
Actual Time 6:22 AM PDT 8:02 PM PDT
Civil Twilight 5:53 AM PDT 8:31 PM PDT
Nautical Twilight 5:17 AM PDT 9:07 PM PDT
Astronomical Twilight 4:39 AM PDT 9:44 PM PDT
Moon 1:17 AM PDT (8/19) 4:04 PM PDT (8/19)
Length of Visible Light 14h 38m
Length of Day
13h 39m
Waning Crescent, 28% of the Moon is Illuminated
Aug 19
Waning Crescent
Aug 25
New
Sep 2
First Quarter
Sep 8
Full
Sep 15
Last Quarter

Hourly Weather History & Observations

Time (PDT) Temp. Heat Index Dew Point Humidity Pressure Visibility Wind Dir Wind Speed Gust Speed Precip Events Conditions
12:56 AM 66.0 °F - 46.0 °F 48% 29.86 in 6.0 mi NW 3.5 mph - N/A   Haze
1:56 AM 62.1 °F - 46.9 °F 58% 29.86 in 10.0 mi ENE 3.5 mph - N/A   Clear
2:56 AM 60.1 °F - 44.1 °F 55% 29.86 in 10.0 mi Calm Calm - N/A   Clear
3:56 AM 57.0 °F - 41.0 °F 55% 29.87 in 10.0 mi ENE 3.5 mph - N/A   Clear
4:56 AM 55.0 °F - 42.1 °F 62% 29.88 in 10.0 mi Calm Calm - N/A   Clear
5:56 AM 55.0 °F - 43.0 °F 64% 29.88 in 10.0 mi Calm Calm - N/A   Clear
6:56 AM 55.0 °F - 44.1 °F 67% 29.90 in 10.0 mi Calm Calm - N/A   Clear
7:56 AM 61.0 °F - 46.9 °F 60% 29.90 in 10.0 mi Calm Calm - N/A   Clear
8:56 AM 69.1 °F - 52.0 °F 54% 29.89 in 6.0 mi Calm Calm - N/A   Haze
9:56 AM 75.9 °F - 53.1 °F 45% 29.87 in 6.0 mi Calm Calm - N/A   Haze
10:56 AM 80.1 °F 79.9 °F 53.1 °F 39% 29.86 in 7.0 mi Variable 3.5 mph - N/A   Clear
11:56 AM 84.9 °F - 52.0 °F 32% 29.85 in 9.0 mi Variable 3.5 mph - N/A   Clear
12:56 PM 88.0 °F - 50.0 °F 27% 29.82 in 10.0 mi Variable 4.6 mph - N/A   Clear
1:56 PM 89.1 °F - 48.0 °F 24% 29.80 in 10.0 mi Variable 4.6 mph - N/A   Clear
2:56 PM 89.1 °F - 46.0 °F 22% 29.78 in 10.0 mi Variable 4.6 mph - N/A   Clear
3:56 PM 88.0 °F - 46.9 °F 24% 29.77 in 10.0 mi Variable 5.8 mph - N/A   Clear
4:56 PM 86.0 °F - 48.9 °F 28% 29.77 in 10.0 mi Calm Calm - N/A   Partly Cloudy
5:56 PM 80.1 °F - 48.0 °F 32% 29.78 in 10.0 mi Calm Calm - N/A   Partly Cloudy
6:56 PM 79.0 °F - 51.1 °F 38% 29.79 in 10.0 mi Variable 4.6 mph - N/A   Partly Cloudy
7:56 PM 78.1 °F - 46.9 °F 33% 29.81 in 10.0 mi Variable 6.9 mph - N/A   Mostly Cloudy
8:56 PM 75.9 °F - 41.0 °F 29% 29.83 in 10.0 mi Variable 6.9 mph - N/A   Overcast
9:56 PM 73.0 °F - 41.0 °F 31% 29.83 in 10.0 mi Variable 5.8 mph - N/A   Mostly Cloudy
10:56 PM 70.0 °F - 46.0 °F 42% 29.86 in 10.0 mi Variable 3.5 mph - N/A   Partly Cloudy
11:56 PM 69.1 °F - 48.0 °F 47% 29.85 in 10.0 mi Variable 3.5 mph - N/A   Clear